RBO52 KGEG-KDFW

Flight info

Callsign RBO52
Flight time 2h 48m
Altitude 35000
Route MLP KU90Q RICCO IIP SNY GCK MMB HOFFF VKTRY2
Aircraft B738/M-SDE2E3FGHIRWXY/LB1

Departure

Time 2026-05-04 19:54
Airport Spokane International Airport (KGEG)

Arrival

Time 2026-05-04 22:42
Airport Dallas Fort Worth International Airport (KDFW)
Time Latitude Longitude Altitude Speed Heading
2026-05-04 18:38 47.62458 -117.53544 2358 ft 0 kts 290°
2026-05-04 19:46 47.62454 -117.53528 2357 ft 2 kts 290°
2026-05-04 19:46 47.62449 -117.53507 2356 ft 2 kts 290°
2026-05-04 19:46 47.62443 -117.53487 2356 ft 2 kts 290°
2026-05-04 19:47 47.62438 -117.53466 2356 ft 2 kts 290°
2026-05-04 19:47 47.62433 -117.53445 2356 ft 2 kts 289°
2026-05-04 19:47 47.62432 -117.53423 2356 ft 2 kts 255°
2026-05-04 19:47 47.62438 -117.53403 2355 ft 2 kts 229°
2026-05-04 19:48 47.62449 -117.53387 2355 ft 2 kts 223°
2026-05-04 19:48 47.62460 -117.53371 2354 ft 2 kts 226°
2026-05-04 19:48 47.62469 -117.53358 2354 ft 0 kts 224°
2026-05-04 19:50 47.62467 -117.53361 2354 ft 3 kts 224°
2026-05-04 19:50 47.62408 -117.53388 2356 ft 16 kts 169°
2026-05-04 19:51 47.62272 -117.53507 2357 ft 27 kts 225°
2026-05-04 19:51 47.62133 -117.53719 2360 ft 28 kts 225°
2026-05-04 19:51 47.61997 -117.53922 2363 ft 26 kts 225°
2026-05-04 19:51 47.61860 -117.54129 2365 ft 28 kts 225°
2026-05-04 19:52 47.61726 -117.54331 2368 ft 26 kts 225°
2026-05-04 19:52 47.61586 -117.54541 2371 ft 27 kts 225°
2026-05-04 19:52 47.61451 -117.54745 2373 ft 28 kts 225°
2026-05-04 19:52 47.61324 -117.54937 2376 ft 25 kts 225°
2026-05-04 19:53 47.61205 -117.55117 2378 ft 21 kts 225°
2026-05-04 19:53 47.61093 -117.55112 2380 ft 18 kts 135°
2026-05-04 19:53 47.61056 -117.54938 2381 ft 28 kts 51°
2026-05-04 19:53 47.61374 -117.54458 2375 ft 101 kts 45°
2026-05-04 19:54 47.62026 -117.53477 2360 ft 164 kts 45°
2026-05-04 19:54 47.62909 -117.52147 2768 ft 187 kts 46°
2026-05-04 19:54 47.63646 -117.50760 3835 ft 172 kts 67°
2026-05-04 19:54 47.63645 -117.48984 4293 ft 190 kts 112°
2026-05-04 19:55 47.62840 -117.47347 4737 ft 207 kts 128°
2026-05-04 19:55 47.62095 -117.45463 5159 ft 221 kts 103°
2026-05-04 19:55 47.61872 -117.43163 5645 ft 235 kts 92°
2026-05-04 19:55 47.61661 -117.40695 6195 ft 249 kts 96°
2026-05-04 19:56 47.61377 -117.38081 6726 ft 264 kts 96°
2026-05-04 19:56 47.61103 -117.35359 7301 ft 277 kts 95°
2026-05-04 19:56 47.60848 -117.32465 7881 ft 289 kts 95°
2026-05-04 19:56 47.60606 -117.29565 8790 ft 287 kts 95°
2026-05-04 19:57 47.60360 -117.26643 9552 ft 292 kts 95°
2026-05-04 19:57 47.60097 -117.23630 10178 ft 301 kts 95°
2026-05-04 19:57 47.59822 -117.20486 10626 ft 317 kts 95°
2026-05-04 19:57 47.59546 -117.17167 11054 ft 333 kts 94°
2026-05-04 19:58 47.59259 -117.13683 11496 ft 348 kts 94°
2026-05-04 19:58 47.58960 -117.10078 11869 ft 365 kts 94°
2026-05-04 19:58 47.58644 -117.06308 12289 ft 380 kts 95°
2026-05-04 19:58 47.58307 -117.02319 12674 ft 395 kts 95°
2026-05-04 19:59 47.57962 -116.98301 13389 ft 399 kts 94°
2026-05-04 19:59 47.57608 -116.94198 14107 ft 404 kts 94°
2026-05-04 19:59 47.57250 -116.90080 14823 ft 408 kts 94°
2026-05-04 19:59 47.56891 -116.85952 15515 ft 412 kts 94°
2026-05-04 20:00 47.56524 -116.81749 16197 ft 416 kts 94°
2026-05-04 20:00 47.56148 -116.77450 16876 ft 420 kts 94°
2026-05-04 20:00 47.55775 -116.73201 17521 ft 424 kts 94°
2026-05-04 20:00 47.55390 -116.68843 18186 ft 427 kts 94°
2026-05-04 20:01 47.55008 -116.64524 18773 ft 433 kts 93°
2026-05-04 20:01 47.54616 -116.60104 19415 ft 436 kts 94°
2026-05-04 20:01 47.54220 -116.55659 20036 ft 440 kts 93°
2026-05-04 20:01 47.53812 -116.51107 20582 ft 445 kts 93°
2026-05-04 20:02 47.53406 -116.46582 21139 ft 449 kts 93°
2026-05-04 20:02 47.52996 -116.42046 21712 ft 453 kts 93°
2026-05-04 20:02 47.52577 -116.37425 22265 ft 456 kts 93°
2026-05-04 20:02 47.52151 -116.32751 22763 ft 462 kts 94°
2026-05-04 20:03 47.51719 -116.28036 23302 ft 465 kts 94°
2026-05-04 20:03 47.51286 -116.23326 23769 ft 470 kts 94°
2026-05-04 20:03 47.50840 -116.18504 24334 ft 472 kts 94°
2026-05-04 20:03 47.50390 -116.13682 24887 ft 475 kts 94°
2026-05-04 20:04 47.49940 -116.08859 25322 ft 480 kts 94°
2026-05-04 20:04 47.49483 -116.03987 25869 ft 481 kts 93°
2026-05-04 20:04 47.49017 -115.99053 26353 ft 484 kts 93°
2026-05-04 20:04 47.48550 -115.94121 26920 ft 485 kts 93°
2026-05-04 20:05 47.48087 -115.89283 27657 ft 481 kts 93°
2026-05-04 20:05 47.47621 -115.84449 28410 ft 476 kts 92°
2026-05-04 20:05 47.47152 -115.79612 29040 ft 475 kts 92°
2026-05-04 20:05 47.46686 -115.74798 29532 ft 475 kts 92°
2026-05-04 20:06 47.46153 -115.69946 29993 ft 479 kts 95°
2026-05-04 20:06 47.45401 -115.65163 30385 ft 485 kts 100°
2026-05-04 20:06 47.44304 -115.60402 30794 ft 491 kts 107°
2026-05-04 20:06 47.42861 -115.55814 31528 ft 489 kts 112°
2026-05-04 20:07 47.41198 -115.51484 32159 ft 487 kts 116°
2026-05-04 20:07 47.39419 -115.47222 32781 ft 484 kts 117°
2026-05-04 20:07 47.37646 -115.43068 32980 ft 489 kts 116°
2026-05-04 20:07 47.35833 -115.38807 33266 ft 492 kts 116°
2026-05-04 20:08 47.34025 -115.34508 33777 ft 490 kts 117°
2026-05-04 20:08 47.32268 -115.30279 34332 ft 486 kts 116°
2026-05-04 20:08 47.30512 -115.26004 34820 ft 482 kts 116°
2026-05-04 20:08 47.28792 -115.21777 34966 ft 485 kts 115°
2026-05-04 20:09 47.27070 -115.17506 34985 ft 491 kts 115°
2026-05-04 20:09 47.23577 -115.08793 34990 ft 498 kts 115°
2026-05-04 20:10 47.20068 -115.00047 34989 ft 496 kts 116°
2026-05-04 20:10 47.16594 -114.91409 34988 ft 495 kts 115°
2026-05-04 20:11 47.13083 -114.82694 34990 ft 497 kts 116°
2026-05-04 20:11 47.09580 -114.74040 34993 ft 497 kts 116°
2026-05-04 20:12 47.06041 -114.65331 34993 ft 496 kts 115°
2026-05-04 20:12 47.02517 -114.56679 34990 ft 497 kts 115°
2026-05-04 20:13 46.98994 -114.48040 34988 ft 497 kts 115°
2026-05-04 20:13 46.95432 -114.39351 34985 ft 499 kts 115°
2026-05-04 20:14 46.91865 -114.30685 34976 ft 498 kts 116°
2026-05-04 20:14 46.88305 -114.22067 34970 ft 499 kts 116°
2026-05-04 20:15 46.84719 -114.13404 34979 ft 498 kts 116°
2026-05-04 20:15 46.81153 -114.04826 34982 ft 497 kts 116°
2026-05-04 20:16 46.77554 -113.96175 34993 ft 499 kts 116°
2026-05-04 20:16 46.73960 -113.87563 34999 ft 497 kts 116°
2026-05-04 20:17 46.70358 -113.78954 35003 ft 501 kts 116°
2026-05-04 20:17 46.66756 -113.70386 35006 ft 498 kts 117°
2026-05-04 20:18 46.63129 -113.61803 35009 ft 498 kts 116°
2026-05-04 20:18 46.59514 -113.53262 35009 ft 499 kts 117°
2026-05-04 20:19 46.55882 -113.44698 35008 ft 499 kts 117°
2026-05-04 20:19 46.52257 -113.36179 35013 ft 498 kts 117°
2026-05-04 20:20 46.48625 -113.27670 35020 ft 498 kts 117°
2026-05-04 20:20 46.44962 -113.19103 35026 ft 498 kts 117°
2026-05-04 20:21 46.41330 -113.10650 35020 ft 496 kts 118°
2026-05-04 20:21 46.35836 -112.97912 35011 ft 497 kts 118°
2026-05-04 20:22 46.32185 -112.89482 35012 ft 499 kts 117°
2026-05-04 20:22 46.28511 -112.81014 35021 ft 500 kts 117°
2026-05-04 20:23 46.24826 -112.72546 35024 ft 496 kts 118°
2026-05-04 20:23 46.21163 -112.64162 35029 ft 498 kts 117°
2026-05-04 20:24 46.17497 -112.55796 35027 ft 495 kts 117°
2026-05-04 20:24 46.13792 -112.47359 35019 ft 499 kts 117°
2026-05-04 20:25 46.10087 -112.38960 35021 ft 496 kts 118°
2026-05-04 20:25 46.06387 -112.30593 35019 ft 497 kts 118°
2026-05-04 20:26 46.02702 -112.22282 35015 ft 496 kts 118°
2026-05-04 20:26 45.98997 -112.13950 35007 ft 497 kts 118°
2026-05-04 20:27 45.95289 -112.05636 35002 ft 495 kts 118°
2026-05-04 20:27 45.91562 -111.97304 35000 ft 496 kts 118°
2026-05-04 20:28 45.87847 -111.89021 35008 ft 497 kts 118°
2026-05-04 20:28 45.84110 -111.80721 35007 ft 498 kts 118°
2026-05-04 20:29 45.80340 -111.72375 35012 ft 498 kts 118°
2026-05-04 20:29 45.76594 -111.64100 35009 ft 497 kts 118°
2026-05-04 20:30 45.72839 -111.55834 35016 ft 498 kts 118°
2026-05-04 20:30 45.69072 -111.47562 35016 ft 498 kts 118°
2026-05-04 20:31 45.65296 -111.39294 35015 ft 497 kts 118°
2026-05-04 20:31 45.61525 -111.31062 35018 ft 500 kts 119°
2026-05-04 20:32 45.57741 -111.22819 35028 ft 498 kts 119°
2026-05-04 20:32 45.53927 -111.14545 35026 ft 501 kts 120°
2026-05-04 20:33 45.50097 -111.06269 35031 ft 499 kts 120°
2026-05-04 20:33 45.46282 -110.98044 35028 ft 500 kts 120°
2026-05-04 20:34 45.42473 -110.89844 35035 ft 498 kts 120°
2026-05-04 20:34 45.38654 -110.81650 35035 ft 499 kts 120°
2026-05-04 20:35 45.34825 -110.73459 35041 ft 500 kts 120°
2026-05-04 20:35 45.30978 -110.65253 35040 ft 499 kts 120°
2026-05-04 20:36 45.27165 -110.57150 35046 ft 496 kts 120°
2026-05-04 20:36 45.23318 -110.48988 35050 ft 502 kts 120°
2026-05-04 20:37 45.19458 -110.40820 35055 ft 500 kts 120°
2026-05-04 20:37 45.15589 -110.32664 35053 ft 498 kts 121°
2026-05-04 20:38 45.11711 -110.24509 35053 ft 500 kts 121°
2026-05-04 20:38 45.07842 -110.16397 35056 ft 500 kts 121°
2026-05-04 20:39 45.03959 -110.08280 35066 ft 499 kts 121°
2026-05-04 20:39 45.00124 -110.00171 35078 ft 500 kts 120°
2026-05-04 20:40 44.96631 -109.91724 35069 ft 499 kts 116°
2026-05-04 20:40 44.93369 -109.83141 35053 ft 497 kts 115°
2026-05-04 20:41 44.90132 -109.74538 35038 ft 497 kts 115°
2026-05-04 20:41 44.86888 -109.65995 35030 ft 497 kts 115°
2026-05-04 20:42 44.83619 -109.57493 35023 ft 498 kts 116°
2026-05-04 20:42 44.80307 -109.48942 35012 ft 499 kts 116°
2026-05-04 20:43 44.76981 -109.40393 35004 ft 500 kts 116°
2026-05-04 20:43 44.73647 -109.31867 35004 ft 499 kts 117°
2026-05-04 20:44 44.70300 -109.23337 34992 ft 500 kts 117°
2026-05-04 20:44 44.66929 -109.14774 34993 ft 500 kts 117°
2026-05-04 20:45 44.63583 -109.06299 34988 ft 499 kts 117°
2026-05-04 20:45 44.60229 -108.97826 34989 ft 500 kts 117°
2026-05-04 20:46 44.56851 -108.89320 34988 ft 501 kts 117°
2026-05-04 20:46 44.53483 -108.80860 34986 ft 501 kts 118°
2026-05-04 20:47 44.50095 -108.72370 34989 ft 501 kts 118°
2026-05-04 20:47 44.46685 -108.63853 34983 ft 502 kts 118°
2026-05-04 20:48 44.43276 -108.55357 34984 ft 502 kts 118°
2026-05-04 20:48 44.39870 -108.46902 34984 ft 501 kts 118°
2026-05-04 20:49 44.36436 -108.38416 34978 ft 503 kts 118°
2026-05-04 20:49 44.33018 -108.29993 34972 ft 501 kts 119°
2026-05-04 20:50 44.29599 -108.21572 34959 ft 501 kts 119°
2026-05-04 20:50 44.26167 -108.13139 34955 ft 501 kts 119°
2026-05-04 20:51 44.22729 -108.04737 34956 ft 503 kts 119°
2026-05-04 20:51 44.19266 -107.96298 34935 ft 502 kts 120°
2026-05-04 20:52 44.15807 -107.87894 34947 ft 502 kts 120°
2026-05-04 20:52 44.12336 -107.79488 34949 ft 503 kts 120°
2026-05-04 20:53 44.08844 -107.71051 34953 ft 503 kts 120°
2026-05-04 20:53 44.05343 -107.62628 34964 ft 505 kts 120°
2026-05-04 20:54 44.01857 -107.54254 34968 ft 504 kts 120°
2026-05-04 20:54 43.98362 -107.45885 34976 ft 502 kts 120°
2026-05-04 20:55 43.94859 -107.37519 34980 ft 503 kts 120°
2026-05-04 20:55 43.91335 -107.29134 34986 ft 503 kts 121°
2026-05-04 20:56 43.87813 -107.20776 34984 ft 504 kts 121°
2026-05-04 20:56 43.84293 -107.12450 34992 ft 505 kts 121°
2026-05-04 20:57 43.80618 -107.04144 34994 ft 506 kts 125°
2026-05-04 20:57 43.76414 -106.96493 34976 ft 503 kts 131°
2026-05-04 20:58 43.71886 -106.89110 34974 ft 503 kts 132°
2026-05-04 20:58 43.67364 -106.81850 34986 ft 504 kts 132°
2026-05-04 20:59 43.62803 -106.74488 34976 ft 502 kts 132°
2026-05-04 20:59 43.58311 -106.67192 34972 ft 502 kts 132°
2026-05-04 21:00 43.53828 -106.59893 34972 ft 501 kts 132°
2026-05-04 21:00 43.49327 -106.52570 34962 ft 500 kts 132°
2026-05-04 21:01 43.44859 -106.45316 34963 ft 501 kts 132°
2026-05-04 21:01 43.40363 -106.38026 34960 ft 500 kts 132°
2026-05-04 21:02 43.35879 -106.30779 34962 ft 499 kts 133°
2026-05-04 21:02 43.31376 -106.23523 34972 ft 501 kts 133°
2026-05-04 21:03 43.26849 -106.16248 34972 ft 501 kts 133°
2026-05-04 21:03 43.22334 -106.09008 34968 ft 499 kts 133°
2026-05-04 21:04 43.17833 -106.01813 34967 ft 500 kts 133°
2026-05-04 21:04 43.13321 -105.94616 34965 ft 501 kts 134°
2026-05-04 21:05 43.08765 -105.87362 34968 ft 500 kts 134°
2026-05-04 21:05 43.04264 -105.80215 34967 ft 499 kts 133°
2026-05-04 21:06 42.99743 -105.73055 34959 ft 499 kts 133°
2026-05-04 21:06 42.95208 -105.65891 34965 ft 500 kts 134°
2026-05-04 21:07 42.90664 -105.58730 34954 ft 500 kts 134°
2026-05-04 21:07 42.86099 -105.51551 34955 ft 500 kts 134°
2026-05-04 21:08 42.81570 -105.44444 34945 ft 498 kts 134°
2026-05-04 21:08 42.78173 -105.39130 34960 ft 499 kts 134°
2026-05-04 21:09 42.73609 -105.32004 34961 ft 499 kts 134°
2026-05-04 21:09 42.69073 -105.24939 34950 ft 499 kts 135°
2026-05-04 21:10 42.64470 -105.17879 34937 ft 499 kts 135°
2026-05-04 21:10 42.59778 -105.10968 34946 ft 499 kts 136°
2026-05-04 21:11 42.55044 -105.04084 34947 ft 498 kts 136°
2026-05-04 21:11 42.50349 -104.97258 34950 ft 499 kts 136°
2026-05-04 21:12 42.45614 -104.90366 34941 ft 498 kts 136°
2026-05-04 21:12 42.40872 -104.83458 34933 ft 502 kts 136°
2026-05-04 21:13 42.36153 -104.76585 34935 ft 500 kts 136°
2026-05-04 21:13 42.31383 -104.69660 34931 ft 500 kts 136°
2026-05-04 21:14 42.26655 -104.62811 34935 ft 500 kts 136°
2026-05-04 21:14 42.21906 -104.55946 34923 ft 501 kts 136°
2026-05-04 21:15 42.17180 -104.49129 34918 ft 501 kts 136°
2026-05-04 21:15 42.12423 -104.42294 34906 ft 500 kts 136°
2026-05-04 21:16 42.07641 -104.35438 34916 ft 502 kts 136°
2026-05-04 21:16 42.02915 -104.28673 34894 ft 498 kts 137°
2026-05-04 21:17 41.98138 -104.21854 34878 ft 503 kts 137°
2026-05-04 21:17 41.93369 -104.15061 34875 ft 504 kts 137°
2026-05-04 21:18 41.88587 -104.08261 34868 ft 501 kts 137°
2026-05-04 21:18 41.83781 -104.01448 34874 ft 504 kts 137°
2026-05-04 21:19 41.78939 -103.94608 34881 ft 507 kts 137°
2026-05-04 21:19 41.74087 -103.87762 34908 ft 509 kts 137°
2026-05-04 21:20 41.69228 -103.80918 34886 ft 509 kts 139°
2026-05-04 21:20 41.64375 -103.74100 34890 ft 510 kts 139°
2026-05-04 21:21 41.59467 -103.67225 34896 ft 510 kts 139°
2026-05-04 21:21 41.54585 -103.60398 34900 ft 511 kts 138°
2026-05-04 21:22 41.49656 -103.53535 34898 ft 515 kts 139°
2026-05-04 21:22 41.44732 -103.46681 34939 ft 515 kts 139°
2026-05-04 21:23 41.39810 -103.39844 34893 ft 516 kts 139°
2026-05-04 21:23 41.34837 -103.32949 34889 ft 514 kts 140°
2026-05-04 21:24 41.29870 -103.26091 34892 ft 516 kts 140°
2026-05-04 21:24 41.24889 -103.19226 34859 ft 515 kts 140°
2026-05-04 21:25 41.19888 -103.12348 34870 ft 519 kts 140°
2026-05-04 21:25 41.14910 -103.05531 34863 ft 521 kts 140°
2026-05-04 21:26 41.09642 -102.98985 34861 ft 515 kts 148°
2026-05-04 21:26 41.03805 -102.93686 34860 ft 507 kts 157°
2026-05-04 21:27 40.97692 -102.89095 34858 ft 501 kts 160°
2026-05-04 21:27 40.91634 -102.84688 34852 ft 500 kts 160°
2026-05-04 21:28 40.85504 -102.80225 34846 ft 506 kts 160°
2026-05-04 21:28 40.79360 -102.75726 34858 ft 509 kts 159°
2026-05-04 21:29 40.73174 -102.71158 34833 ft 505 kts 159°
2026-05-04 21:29 40.67045 -102.66627 34839 ft 512 kts 159°
2026-05-04 21:30 40.60855 -102.62061 34815 ft 511 kts 159°
2026-05-04 21:30 40.54659 -102.57497 34832 ft 513 kts 159°
2026-05-04 21:31 40.45360 -102.50664 34821 ft 511 kts 160°
2026-05-04 21:32 40.39117 -102.46100 34826 ft 517 kts 159°
2026-05-04 21:32 40.32834 -102.41512 34814 ft 521 kts 159°
2026-05-04 21:33 40.26569 -102.36940 34809 ft 515 kts 160°
2026-05-04 21:33 40.20276 -102.32359 34807 ft 519 kts 161°
2026-05-04 21:34 40.14007 -102.27817 34789 ft 521 kts 161°
2026-05-04 21:34 40.07626 -102.23201 34797 ft 521 kts 161°
2026-05-04 21:35 40.01300 -102.18631 34790 ft 526 kts 160°
2026-05-04 21:35 39.94896 -102.14011 34794 ft 522 kts 161°
2026-05-04 21:36 39.88614 -102.09476 34791 ft 523 kts 161°
2026-05-04 21:36 39.82230 -102.04887 34790 ft 523 kts 161°
2026-05-04 21:37 39.75895 -102.00346 34784 ft 524 kts 161°
2026-05-04 21:37 39.69541 -101.95796 34789 ft 521 kts 161°
2026-05-04 21:38 39.63168 -101.91256 34797 ft 526 kts 161°
2026-05-04 21:38 39.56791 -101.86714 34797 ft 518 kts 161°
2026-05-04 21:39 39.50457 -101.82218 34794 ft 527 kts 161°
2026-05-04 21:39 39.44094 -101.77708 34790 ft 522 kts 161°
2026-05-04 21:40 39.37732 -101.73197 34799 ft 518 kts 162°
2026-05-04 21:40 39.31438 -101.68752 34798 ft 518 kts 161°
2026-05-04 21:41 39.25091 -101.64284 34792 ft 521 kts 161°
2026-05-04 21:41 39.18686 -101.59797 34792 ft 526 kts 161°
2026-05-04 21:42 39.12362 -101.55344 34790 ft 517 kts 161°
2026-05-04 21:42 39.05982 -101.50889 34782 ft 524 kts 161°
2026-05-04 21:43 38.99564 -101.46408 34766 ft 524 kts 162°
2026-05-04 21:43 38.93232 -101.41977 34776 ft 518 kts 162°
2026-05-04 21:44 38.86910 -101.37568 34772 ft 517 kts 162°
2026-05-04 21:44 38.80530 -101.33158 34770 ft 526 kts 163°
2026-05-04 21:45 38.74225 -101.28783 34774 ft 515 kts 163°
2026-05-04 21:45 38.67874 -101.24390 34764 ft 521 kts 163°
2026-05-04 21:46 38.61567 -101.20035 34769 ft 516 kts 163°
2026-05-04 21:46 38.55193 -101.15655 34764 ft 524 kts 163°
2026-05-04 21:47 38.48811 -101.11260 34766 ft 517 kts 163°
2026-05-04 21:47 38.42437 -101.06894 34753 ft 527 kts 163°
2026-05-04 21:48 38.35997 -101.02496 34752 ft 525 kts 163°
2026-05-04 21:48 38.29633 -100.98128 34747 ft 520 kts 164°
2026-05-04 21:49 38.23271 -100.93790 34737 ft 526 kts 164°
2026-05-04 21:49 38.16801 -100.89401 34744 ft 527 kts 164°
2026-05-04 21:50 38.10396 -100.85046 34737 ft 526 kts 164°
2026-05-04 21:50 38.03952 -100.80680 34724 ft 524 kts 164°
2026-05-04 21:51 37.97463 -100.76304 34726 ft 533 kts 165°
2026-05-04 21:51 37.91024 -100.71948 34723 ft 520 kts 165°
2026-05-04 21:52 37.84552 -100.68088 34717 ft 512 kts 169°
2026-05-04 21:52 37.77918 -100.64587 34715 ft 516 kts 171°
2026-05-04 21:53 37.71350 -100.61144 34724 ft 517 kts 171°
2026-05-04 21:53 37.64713 -100.57629 34724 ft 522 kts 170°
2026-05-04 21:54 37.58041 -100.54050 34727 ft 523 kts 169°
2026-05-04 21:54 37.54708 -100.52246 35003 ft 522 kts 169°
2026-05-04 21:54 37.51373 -100.50433 35695 ft 517 kts 169°
2026-05-04 21:54 37.48092 -100.48640 36442 ft 510 kts 170°
2026-05-04 21:55 37.44859 -100.46879 36716 ft 512 kts 170°
2026-05-04 21:55 37.38295 -100.43336 36719 ft 512 kts 170°
2026-05-04 21:56 37.31673 -100.39783 36715 ft 522 kts 170°
2026-05-04 21:56 37.24938 -100.36172 36706 ft 524 kts 169°
2026-05-04 21:57 37.18296 -100.32581 36699 ft 521 kts 170°
2026-05-04 21:57 37.11584 -100.28987 36694 ft 530 kts 170°
2026-05-04 21:58 37.04865 -100.25376 36692 ft 519 kts 170°
2026-05-04 21:58 36.98199 -100.21807 36680 ft 527 kts 171°
2026-05-04 21:59 36.91492 -100.18232 36676 ft 522 kts 170°
2026-05-04 21:59 36.84757 -100.14654 36678 ft 525 kts 170°
2026-05-04 22:00 36.78106 -100.11113 36680 ft 525 kts 170°
2026-05-04 22:00 36.71365 -100.07540 36681 ft 526 kts 170°
2026-05-04 22:01 36.64625 -100.03971 36685 ft 528 kts 170°
2026-05-04 22:01 36.57935 -100.00420 36689 ft 522 kts 170°
2026-05-04 22:02 36.51167 -99.96860 36692 ft 531 kts 169°
2026-05-04 22:02 36.44381 -99.93304 36694 ft 530 kts 169°
2026-05-04 22:03 36.37619 -99.89739 36689 ft 526 kts 169°
2026-05-04 22:03 36.30887 -99.85963 36689 ft 536 kts 165°
2026-05-04 22:04 36.24283 -99.81575 36688 ft 540 kts 162°
2026-05-04 22:04 36.17755 -99.77014 36685 ft 545 kts 161°
2026-05-04 22:05 36.11183 -99.72437 36689 ft 538 kts 161°
2026-05-04 22:05 36.04610 -99.67950 36696 ft 545 kts 162°
2026-05-04 22:06 35.98021 -99.63495 36688 ft 539 kts 162°
2026-05-04 22:06 35.91391 -99.59062 36686 ft 546 kts 162°
2026-05-04 22:07 35.84753 -99.54625 36680 ft 538 kts 162°
2026-05-04 22:07 35.78190 -99.50236 36670 ft 542 kts 162°
2026-05-04 22:08 35.71487 -99.45795 36674 ft 543 kts 162°
2026-05-04 22:08 35.64848 -99.41389 36672 ft 546 kts 161°
2026-05-04 22:09 35.58183 -99.36953 36672 ft 542 kts 162°
2026-05-04 22:09 35.51598 -99.32571 36665 ft 539 kts 162°
2026-05-04 22:10 35.44986 -99.28207 36664 ft 542 kts 162°
2026-05-04 22:10 35.38331 -99.23826 36659 ft 541 kts 162°
2026-05-04 22:11 35.31724 -99.19473 36663 ft 542 kts 162°
2026-05-04 22:11 35.25043 -99.15078 36664 ft 545 kts 162°
2026-05-04 22:12 35.18413 -99.10720 36659 ft 543 kts 162°
2026-05-04 22:12 35.11692 -99.06320 36655 ft 548 kts 162°
2026-05-04 22:13 35.05003 -99.01939 36650 ft 543 kts 162°
2026-05-04 22:13 34.98318 -98.97578 36654 ft 546 kts 162°
2026-05-04 22:14 34.91517 -98.93922 36651 ft 523 kts 176°
2026-05-04 22:14 34.88020 -98.93044 36653 ft 501 kts 187°
2026-05-04 22:14 34.84580 -98.92828 36660 ft 487 kts 194°
2026-05-04 22:15 34.77919 -98.93175 36663 ft 477 kts 199°
2026-05-04 22:15 34.71307 -98.93808 36665 ft 473 kts 199°
2026-05-04 22:16 34.64720 -98.94473 36663 ft 477 kts 199°
2026-05-04 22:16 34.58139 -98.95100 36658 ft 474 kts 199°
2026-05-04 22:17 34.51542 -98.95699 36663 ft 476 kts 198°
2026-05-04 22:17 34.44820 -98.95417 36438 ft 498 kts 181°
2026-05-04 22:17 34.41510 -98.94099 35899 ft 518 kts 166°
2026-05-04 22:18 34.38368 -98.91814 35269 ft 536 kts 151°
2026-05-04 22:18 34.35562 -98.88783 34498 ft 546 kts 142°
2026-05-04 22:18 34.32907 -98.85505 33689 ft 549 kts 139°
2026-05-04 22:18 34.30298 -98.82149 33061 ft 548 kts 139°
2026-05-04 22:19 34.27712 -98.78760 32552 ft 545 kts 137°
2026-05-04 22:19 34.25183 -98.75427 31976 ft 544 kts 138°
2026-05-04 22:19 34.22622 -98.72052 31363 ft 543 kts 137°
2026-05-04 22:19 34.20045 -98.68676 30733 ft 542 kts 137°
2026-05-04 22:20 34.17501 -98.65359 30114 ft 541 kts 138°
2026-05-04 22:20 34.14948 -98.62045 29486 ft 540 kts 138°
2026-05-04 22:20 34.12392 -98.58740 28845 ft 538 kts 137°
2026-05-04 22:20 34.09839 -98.55447 28210 ft 537 kts 137°
2026-05-04 22:21 34.07299 -98.52177 27581 ft 535 kts 137°
2026-05-04 22:21 34.04778 -98.48931 26963 ft 532 kts 137°
2026-05-04 22:21 34.02259 -98.45680 26337 ft 530 kts 136°
2026-05-04 22:21 33.99773 -98.42465 25726 ft 526 kts 136°
2026-05-04 22:22 33.97262 -98.39219 25089 ft 523 kts 136°
2026-05-04 22:22 33.94804 -98.36047 24461 ft 520 kts 136°
2026-05-04 22:22 33.92350 -98.32885 23800 ft 515 kts 136°
2026-05-04 22:22 33.89933 -98.29778 23166 ft 510 kts 136°
2026-05-04 22:23 33.87534 -98.26696 22547 ft 504 kts 136°
2026-05-04 22:23 33.85140 -98.23624 21923 ft 499 kts 136°
2026-05-04 22:23 33.82782 -98.20601 21325 ft 493 kts 136°
2026-05-04 22:23 33.80454 -98.17618 20721 ft 488 kts 136°
2026-05-04 22:24 33.78149 -98.14668 20113 ft 482 kts 136°
2026-05-04 22:24 33.75843 -98.11723 19510 ft 477 kts 136°
2026-05-04 22:24 33.73586 -98.08839 18927 ft 471 kts 135°
2026-05-04 22:24 33.71374 -98.06016 18742 ft 455 kts 135°
2026-05-04 22:25 33.69263 -98.03316 18714 ft 437 kts 136°
2026-05-04 22:25 33.67199 -98.00678 18416 ft 427 kts 136°
2026-05-04 22:25 33.65176 -97.98101 17813 ft 426 kts 136°
2026-05-04 22:25 33.63162 -97.95541 17261 ft 423 kts 135°
2026-05-04 22:26 33.61149 -97.92982 16818 ft 417 kts 136°
2026-05-04 22:26 33.59157 -97.90453 16317 ft 414 kts 136°
2026-05-04 22:26 33.57204 -97.87974 15803 ft 410 kts 136°
2026-05-04 22:26 33.55263 -97.85513 15284 ft 407 kts 135°
2026-05-04 22:27 33.53316 -97.83046 14750 ft 404 kts 136°
2026-05-04 22:27 33.51389 -97.80605 14231 ft 401 kts 135°
2026-05-04 22:27 33.49504 -97.78220 13711 ft 398 kts 135°
2026-05-04 22:27 33.47591 -97.75801 13182 ft 396 kts 135°
2026-05-04 22:28 33.45740 -97.73442 12706 ft 392 kts 135°
2026-05-04 22:28 33.43876 -97.71046 12167 ft 389 kts 135°
2026-05-04 22:28 33.42068 -97.68709 11641 ft 387 kts 135°
2026-05-04 22:28 33.40254 -97.66361 11003 ft 384 kts 135°
2026-05-04 22:29 33.38475 -97.64071 10771 ft 365 kts 135°
2026-05-04 22:29 33.36857 -97.61868 10562 ft 348 kts 132°
2026-05-04 22:29 33.35403 -97.59606 10364 ft 334 kts 128°
2026-05-04 22:29 33.34095 -97.57378 10127 ft 322 kts 128°
2026-05-04 22:30 33.32811 -97.55190 10018 ft 316 kts 128°
2026-05-04 22:30 33.31535 -97.53030 9855 ft 322 kts 128°
2026-05-04 22:30 33.30267 -97.50882 9683 ft 312 kts 129°
2026-05-04 22:30 33.29053 -97.48820 9525 ft 301 kts 129°
2026-05-04 22:31 33.27835 -97.46793 9190 ft 300 kts 130°
2026-05-04 22:31 33.26699 -97.44725 8869 ft 301 kts 119°
2026-05-04 22:31 33.26076 -97.42333 8888 ft 303 kts 101°
2026-05-04 22:31 33.25804 -97.39814 8988 ft 308 kts 97°
2026-05-04 22:32 33.25556 -97.37269 8936 ft 309 kts 99°
2026-05-04 22:32 33.25252 -97.34756 8940 ft 304 kts 100°
2026-05-04 22:32 33.24918 -97.32265 8961 ft 306 kts 101°
2026-05-04 22:32 33.24554 -97.29733 8964 ft 305 kts 102°
2026-05-04 22:33 33.24149 -97.27264 8985 ft 306 kts 104°
2026-05-04 22:33 33.23716 -97.24782 8935 ft 304 kts 104°
2026-05-04 22:33 33.23274 -97.22324 8665 ft 301 kts 104°
2026-05-04 22:33 33.22838 -97.19894 8311 ft 302 kts 104°
2026-05-04 22:34 33.22398 -97.17420 7936 ft 302 kts 104°
2026-05-04 22:34 33.21968 -97.14972 7585 ft 301 kts 104°
2026-05-04 22:34 33.21547 -97.12549 7229 ft 301 kts 104°
2026-05-04 22:34 33.21128 -97.10085 6838 ft 302 kts 104°
2026-05-04 22:35 33.20708 -97.07657 6514 ft 300 kts 105°
2026-05-04 22:35 33.20129 -97.05306 6181 ft 294 kts 119°
2026-05-04 22:35 33.18907 -97.03434 5913 ft 274 kts 151°
2026-05-04 22:35 33.17239 -97.02585 5731 ft 257 kts 174°
2026-05-04 22:36 33.15467 -97.02433 5280 ft 256 kts 185°
2026-05-04 22:36 33.13699 -97.02498 4808 ft 256 kts 185°
2026-05-04 22:36 33.11932 -97.02521 4477 ft 247 kts 182°
2026-05-04 22:36 33.10268 -97.02481 4144 ft 230 kts 182°
2026-05-04 22:37 33.08753 -97.02445 3891 ft 207 kts 182°
2026-05-04 22:37 33.07364 -97.02425 3541 ft 193 kts 182°
2026-05-04 22:37 33.06078 -97.02423 3313 ft 176 kts 184°
2026-05-04 22:37 33.04911 -97.02461 3094 ft 161 kts 185°
2026-05-04 22:38 33.03832 -97.02508 2862 ft 148 kts 184°
2026-05-04 22:38 33.02869 -97.02534 2749 ft 128 kts 182°
2026-05-04 22:38 33.02014 -97.02525 2542 ft 116 kts 183°
2026-05-04 22:38 33.01218 -97.02526 2356 ft 113 kts 182°
2026-05-04 22:39 33.00418 -97.02524 2172 ft 114 kts 181°
2026-05-04 22:39 32.99621 -97.02511 2001 ft 115 kts 181°
2026-05-04 22:39 32.98817 -97.02504 1894 ft 114 kts 182°
2026-05-04 22:39 32.98015 -97.02512 1777 ft 116 kts 182°
2026-05-04 22:40 32.97206 -97.02531 1676 ft 114 kts 182°
2026-05-04 22:40 32.96411 -97.02528 1544 ft 112 kts 180°
2026-05-04 22:40 32.95621 -97.02548 1362 ft 115 kts 182°
2026-05-04 22:40 32.94804 -97.02579 1206 ft 120 kts 181°
2026-05-04 22:41 32.93969 -97.02595 1070 ft 118 kts 180°
2026-05-04 22:41 32.93142 -97.02590 898 ft 119 kts 179°
2026-05-04 22:41 32.92309 -97.02589 753 ft 118 kts 179°
2026-05-04 22:41 32.91471 -97.02593 584 ft 124 kts 179°
2026-05-04 22:42 32.90675 -97.02595 562 ft 93 kts 182°
2026-05-04 22:42 32.90226 -97.02605 561 ft 50 kts 181°
2026-05-04 22:42 32.89943 -97.02670 563 ft 31 kts 210°
2026-05-04 22:42 32.89764 -97.02808 565 ft 30 kts 239°
2026-05-04 22:43 32.89750 -97.03048 573 ft 28 kts 269°
2026-05-04 22:43 32.89750 -97.03195 576 ft 15 kts 269°
2026-05-04 22:43 32.89748 -97.03286 578 ft 1 kts 249°
2026-05-04 22:44 32.89730 -97.03307 578 ft 10 kts 207°
2026-05-04 22:44 32.89609 -97.03317 577 ft 22 kts 179°
2026-05-04 22:44 32.89457 -97.03316 575 ft 20 kts 180°
2026-05-04 22:44 32.89325 -97.03316 575 ft 16 kts 181°
2026-05-04 22:45 32.89216 -97.03319 575 ft 15 kts 181°
2026-05-04 22:45 32.88988 -97.03336 572 ft 21 kts 202°
2026-05-04 22:45 32.88884 -97.03442 572 ft 18 kts 223°
2026-05-04 22:46 32.88795 -97.03534 572 ft 15 kts 218°
2026-05-04 22:46 32.88725 -97.03603 570 ft 10 kts 219°
2026-05-04 22:46 32.88717 -97.03659 569 ft 6 kts 319°
2026-05-04 22:46 32.88750 -97.03683 569 ft 2 kts 329°
2026-05-04 22:47 32.88756 -97.03687 569 ft 0 kts 329°